Weather in Sao Goncalo

Brazil     22°49′23″S   43°02′43″W
temp.,
°C
wind,
m/s
gust,
m/s
humid.,
%
clouds,
%
prec.,
mm/h
press.,
hPa
HPBL,
m
26 october, tue
tue2600:00+20ne2592100 0.2 1019233
03:00+20ene1193100 0.4 101849
06:00+20sw1193100 0.1 101953
09:00+23nw118195 0.1 1021354
12:00+25nnw117390 0.0 1020598
15:00+26sse127297 0.0 1018670
18:00+24ene2484100 0.1 1019351
21:00+22e1296100 1.1 1020117
27 october, wed
wed2700:00+22nne1197100 0.8 1019105
03:00+22nnw119799 0.9 101886
06:00+22nnw009799 0.1 102056
09:00+24nnw1189100 0.6 1021330
12:00+27ssw117978 1.2 1020702
15:00+24sw2394100 4.4 1019129
18:00+22sw1198100 5.6 102079
21:00+22nne0199100 14.2 102292
28 october, thu
thu2800:00+22ene0099100 2.8 102155
03:00+21e0198100 3.1 102041
06:00+21ene119799 0.1 102132
09:00+25se117955 0.2 1022548
12:00+29ssw125528 0.2 10201441
15:00+26s1472100 0.6 1017283
18:00+23ese248793 0.7 1020265
21:00+22ese269399 1.8 1022383
29 october, fri
fri2900:00+21e149499 0.3 1020334
03:00+21e149493 0.3 1018261
06:00+21ese129599 0.0 1018147
09:00+22ese1289100 0.3 1019354
12:00+21nnw0196100 3.0 1018111
15:00+21sse2594100 4.6 1017341
18:00+19sse2596100 2.7 1018328
21:00+19se1497100 8.2 1020218
30 october, sat
sat3000:00+19e269494 0.6 1018435
03:00+18ese139690 0.6 1016144
06:00+19ne1295100 0.0 1018110
09:00+20ne1293100 0.2 1019256
12:00+20e1390100 0.3 1018390
15:00+21ese1384100 0.4 1017401
18:00+20e1191100 0.1 101876
21:00+20ene1194100 0.3 101897